Home > Weather > Gomel > Past weeks

Flag for Belarus Past Weather in Gomel, Belarus — Yesterday and Last 2 Weeks

Now
72 °F

Clear.


Feels Like: 72 °F
Forecast: 63 / 72 °F
Wind: 15 mph from North

Location: Gomel'

Current Time: Aug 24, 2016 at 12:05:44 AM

Latest Report: Aug 23, 2016 at 11:00 PM


Visibility: 10 mi

Pressure: 30.07 "Hg

Humidity: 78%

Dew Point: 64 °F

Location of GomelLocation

Past Weather in Gomel — Graph

°F

Gomel Temperature Yesterday

Maximum temperature yesterday: 81 °F (at 1:00 PM)
Minimum temperature yesterday: 66 °F (at 12:00 AM)
Average temperature yesterday: 72 °F

High & Low Weather Summary for the Past Weeks

 TemperatureHumidityPressure
High86 °F (Aug 11, 12:00 PM)100% (Aug 19, 2:00 AM)30.24 "Hg (Aug 19, 2:00 AM)
Low46 °F (Aug 13, 6:00 AM)30% (Aug 10, 3:00 PM)29.86 "Hg (Aug 11, 5:00 AM)
Average67 °F68%30.03 "Hg
* Reported Aug 8 10:00 PM — Aug 23 10:00 PM, Gomel, Weather by CustomWeather, © 2016

Note: Actual official high and low records may vary slightly from our data, if they occured in-between our weather recording intervals... More about our weather records

Advertising

Gomel Weather History for the Previous 24 Hours

Scroll right to see more
 ConditionsComfort  
Time TempWeatherWind HumidityBarometerVisibility
10:00 PM
Tue, Aug 23
72 °FFog.3 mph94%30.07 "Hg3 mi
9:00 PM73 °FPartly sunny.1 mph89%30.07 "Hg5 mi
8:00 PM75 °FBroken clouds.1 mph83%30.07 "HgN/A
7:30 PM77 °FBroken clouds.1 mph79%30.07 "HgN/A
7:00 PM77 °FBroken clouds.3 mph79%30.07 "HgN/A
6:30 PM75 °FBroken clouds.8 mph83%30.07 "HgN/A
6:00 PM75 °FThunderstorms. Broken clouds.8 mph83%30.07 "HgN/A
5:30 PM75 °FThunderstorms. Broken clouds.1 mph89%30.07 "Hg6 mi
5:00 PM75 °FSprinkles. Broken clouds.1 mph89%30.07 "Hg4 mi
4:30 PM77 °FSprinkles. Broken clouds.1 mph79%30.07 "HgN/A
4:00 PM77 °FSprinkles. Broken clouds.8 mph79%30.07 "Hg4 mi
3:30 PM79 °FSprinkles. Broken clouds.6 mph70%30.09 "HgN/A
3:00 PM79 °FThunderstorms. Broken clouds.3 mph70%30.09 "HgN/A
2:30 PM79 °FBroken clouds.8 mph70%30.09 "HgN/A
2:00 PM79 °FBroken clouds.6 mph70%30.09 "HgN/A
1:30 PM81 °FBroken clouds.6 mph70%30.09 "HgN/A
1:00 PM81 °FBroken clouds.1 mph70%30.09 "HgN/A
12:30 PM77 °FSprinkles. Broken clouds.6 mph74%30.09 "Hg4 mi
12:00 PM77 °FBroken clouds.8 mph74%30.09 "HgN/A
11:30 AM72 °FThunderstorms. Partly sunny.8 mph88%30.09 "HgN/A
11:02 AM72 °FThunderstorms. Partly sunny.8 mph88%30.09 "HgN/A
10:30 AM70 °FSprinkles. Partly sunny.8 mph88%30.09 "Hg5 mi
10:00 AM70 °FSprinkles. Broken clouds.13 mph88%30.09 "Hg6 mi
9:30 AM68 °FSprinkles. Broken clouds.10 mph88%30.09 "Hg6 mi
9:00 AM68 °FBroken clouds.8 mph88%30.09 "Hg6 mi
8:30 AM68 °FBroken clouds.8 mph88%30.12 "Hg4 mi
8:00 AM68 °FBroken clouds.6 mph88%30.12 "Hg4 mi
7:30 AM66 °FBroken clouds.1 mph94%30.12 "Hg4 mi
7:00 AM66 °FBroken clouds.3 mph94%30.12 "Hg4 mi
6:30 AM66 °FClear.3 mph94%30.09 "Hg4 mi
6:00 AM66 °FClear.3 mph94%30.09 "Hg4 mi
5:00 AM66 °FFog.3 mph94%30.09 "Hg3 mi
4:00 AM66 °FPartly cloudy.3 mph94%30.09 "Hg4 mi
3:00 AM66 °FPartly cloudy.6 mph88%30.09 "Hg4 mi
2:00 AM66 °FClear.3 mph88%30.12 "Hg4 mi
1:00 AM66 °FClear.3 mph88%30.12 "Hg4 mi
12:00 AM66 °FClear.3 mph88%30.12 "Hg4 mi
Weather by CustomWeather, © 2016

See weather overviewHow to use our weather pages